Date String (YYYY-MM-DD hh:mm:ss) UTC,Instrument flags,Ambient pressure (hPa),Sample flow (lpm),Bypass flow (lpm),Sample temperature (°C),Ambient temperature (°C),ASC tube jacket temperature (°C),LED temperature (°C),Box temperature (°C),Sample RH (%),Span deviation,Mass concentration (μg/m³),Mass concentration (μg/m³),Mass concentration (μg/m³)
DateTimeUTC,F1_M11,P_M11,Q1_M11,Q2_M11,T1_M11,T2_M11,T3_M11,T4_M11,T5_M11,U1_M11,ZSPAN_M11,X0_M11,X2_M11,X1_M11
2022-08-17 00:00:00,,0831.1,5.00,0.00,31.8,28.9,00.0,39.7,32.4,33.4,0000.0,0009.18,0005.59,0005.04
2022-08-17 00:01:00,,0831.1,4.99,0.00,31.7,28.9,00.0,39.8,32.4,33.4,0000.0,0009.19,0005.61,0005.06
2022-08-17 00:02:00,,0831.0,5.00,0.00,31.7,29.0,00.0,39.8,32.4,33.5,0000.0,0009.21,0005.64,0005.10
2022-08-17 00:03:00,,0831.0,5.01,0.00,31.7,28.7,00.0,39.8,32.2,33.6,0000.0,0009.37,0005.68,0005.13
2022-08-17 00:04:00,,0831.0,5.01,0.00,31.6,27.9,00.0,39.7,32.0,33.9,0000.0,0009.33,0005.67,0005.15
2022-08-17 00:05:00,,0831.0,5.01,0.00,31.5,27.5,00.0,39.7,31.9,34.3,0000.0,0009.36,0005.72,0005.18
2022-08-17 00:06:00,,0831.0,4.99,0.00,31.3,27.4,00.0,39.7,31.9,34.2,0000.0,0009.43,0005.77,0005.21
2022-08-17 00:07:00,,0831.0,5.02,0.00,31.2,27.5,00.0,39.6,31.8,34.3,0000.0,0009.44,0005.77,0005.22
2022-08-17 00:08:00,,0831.1,4.98,0.00,31.1,27.6,00.0,39.6,31.9,34.9,0000.0,0009.41,0005.77,0005.23
2022-08-17 00:09:00,,0831.0,5.02,0.00,31.1,27.8,00.0,39.6,32.0,35.2,0000.0,0009.38,0005.76,0005.24
2022-08-17 00:10:00,,0831.0,5.01,0.00,31.3,27.9,00.0,39.6,32.1,34.8,0000.0,0009.49,0005.79,0005.24
2022-08-17 00:11:00,,0831.0,4.99,0.00,31.5,28.1,00.0,39.5,32.2,34.4,0000.0,0009.55,0005.82,0005.24
2022-08-17 00:12:00,,0831.0,5.01,0.00,31.5,28.2,00.0,39.6,32.2,34.4,0000.0,0009.58,0005.82,0005.24
2022-08-17 00:13:00,,0830.9,5.00,0.00,31.6,28.4,00.0,39.6,32.2,34.9,0000.0,0009.79,0005.85,0005.23
2022-08-17 00:14:00,,0830.9,5.00,0.00,31.6,28.5,00.0,39.6,32.2,34.2,0000.0,0009.71,0005.87,0005.24
2022-08-17 00:15:00,,0831.0,5.00,0.00,31.7,28.6,00.0,39.6,32.3,33.9,0000.0,0009.33,0005.85,0005.23
2022-08-17 00:16:00,,0831.0,5.00,0.00,31.7,28.7,00.0,39.7,32.3,33.5,0000.0,0009.22,0005.83,0005.22
2022-08-17 00:17:00,,0831.0,4.99,0.00,31.7,28.8,00.0,39.7,32.3,33.8,0000.0,0009.10,0005.78,0005.20
2022-08-17 00:18:00,,0831.0,5.00,0.00,31.7,28.9,00.0,39.7,32.3,33.9,0000.0,0009.03,0005.77,0005.20
2022-08-17 00:19:00,,0831.0,5.01,0.00,31.6,28.9,00.0,39.8,32.4,34.1,0000.0,0009.01,0005.78,0005.20
2022-08-17 00:20:00,,0831.0,5.00,0.00,31.6,28.9,00.0,39.8,32.3,34.0,0000.0,0009.02,0005.79,0005.20
2022-08-17 00:21:00,,0830.9,4.99,0.00,31.6,28.4,00.0,39.7,32.1,33.9,0000.0,0008.95,0005.79,0005.22
2022-08-17 00:22:00,,0830.9,5.01,0.00,31.4,27.7,00.0,39.7,32.0,34.0,0000.0,0008.96,0005.82,0005.25
2022-08-17 00:23:00,,0830.9,5.00,0.00,31.3,27.4,00.0,39.6,31.9,34.7,0000.0,0008.96,0005.85,0005.28
2022-08-17 00:24:00,,0830.9,4.99,0.00,31.2,27.4,00.0,39.6,31.8,35.0,0000.0,0009.54,0005.83,0005.30
2022-08-17 00:25:00,,0830.9,5.01,0.00,31.1,27.5,00.0,39.6,31.8,35.4,0000.0,0009.41,0005.80,0005.31
2022-08-17 00:26:00,,0830.9,4.99,0.00,31.3,27.6,00.0,39.6,32.0,34.6,0000.0,0009.67,0005.81,0005.32
2022-08-17 00:27:00,,0830.9,4.99,0.00,31.5,27.8,00.0,39.5,32.1,34.7,0000.0,0009.93,0005.81,0005.31
2022-08-17 00:28:00,,0830.9,5.01,0.00,31.6,28.0,00.0,39.5,32.1,35.2,0000.0,0009.98,0005.81,0005.30
2022-08-17 00:29:00,,0830.9,5.00,0.00,31.8,28.1,00.0,39.6,32.2,34.7,0000.0,0010.00,0005.81,0005.28
2022-08-17 00:30:00,,0830.9,4.99,0.00,31.9,28.3,00.0,39.6,32.3,33.6,0000.0,0009.94,0005.78,0005.26
2022-08-17 00:31:00,,0830.9,5.00,0.00,31.9,28.4,00.0,39.6,32.3,32.4,0000.0,0009.90,0005.75,0005.25
2022-08-17 00:32:00,,0830.9,5.00,0.00,32.0,28.5,00.0,39.7,32.3,32.8,0000.0,0010.38,0005.73,0005.21
2022-08-17 00:33:00,,0830.9,5.01,0.00,31.9,28.6,00.0,39.7,32.3,32.3,0000.0,0010.85,0005.71,0005.18
2022-08-17 00:34:00,,0830.9,5.00,0.00,31.9,28.7,00.0,39.8,32.3,32.3,0000.0,0010.87,0005.68,0005.15
2022-08-17 00:35:00,,0830.9,5.00,0.00,31.9,28.8,00.0,39.8,32.3,32.3,0000.0,0010.54,0005.70,0005.13
2022-08-17 00:36:00,,0830.9,5.00,0.00,31.9,28.9,00.0,39.9,32.4,32.4,0000.0,0010.75,0005.71,0005.11
2022-08-17 00:37:00,,0830.9,5.00,0.00,31.8,29.0,00.0,39.9,32.4,33.3,0000.0,0010.55,0005.72,0005.11
2022-08-17 00:38:00,,0830.9,5.00,0.00,31.8,29.0,00.0,39.9,32.4,33.7,0000.0,0010.27,0005.72,0005.12
2022-08-17 00:39:00,,0830.9,4.99,0.00,31.7,28.5,00.0,39.9,32.2,33.7,0000.0,0010.29,0005.74,0005.14
2022-08-17 00:40:00,,0830.9,5.01,0.00,31.6,27.8,00.0,39.8,32.0,34.0,0000.0,0010.24,0005.74,0005.16
2022-08-17 00:41:00,,0830.9,5.00,0.00,31.5,27.4,00.0,39.8,31.9,33.9,0000.0,0010.66,0005.75,0005.17
2022-08-17 00:42:00,,0830.9,5.00,0.00,31.4,27.4,00.0,39.8,31.9,35.3,0000.0,0011.10,0005.78,0005.18
2022-08-17 00:43:00,,0830.9,4.99,0.00,31.4,27.5,00.0,39.7,32.0,35.4,0000.0,0010.97,0005.80,0005.20
2022-08-17 00:44:00,,0830.9,5.02,0.00,31.6,27.7,00.0,39.7,32.2,35.0,0000.0,0010.51,0005.80,0005.20
2022-08-17 00:45:00,,0831.0,4.98,0.00,31.9,27.8,00.0,39.7,32.3,32.6,0000.0,0010.67,0005.78,0005.19
2022-08-17 00:46:00,,0831.0,5.00,0.00,32.0,28.0,00.0,39.7,32.3,32.5,0000.0,0010.30,0005.74,0005.17
2022-08-17 00:47:00,,0831.0,5.01,0.00,32.0,28.1,00.0,39.7,32.3,33.2,0000.0,0010.13,0005.73,0005.17
2022-08-17 00:48:00,,0831.0,4.99,0.00,32.0,28.3,00.0,39.8,32.3,33.0,0000.0,0010.18,0005.68,0005.15
2022-08-17 00:49:00,,0831.0,5.00,0.00,32.0,28.4,00.0,39.8,32.3,31.8,0000.0,0010.14,0005.66,0005.13
2022-08-17 00:50:00,,0831.0,4.99,0.00,32.0,28.5,00.0,39.9,32.3,31.7,0000.0,0010.02,0005.60,0005.08
2022-08-17 00:51:00,,0831.0,5.01,0.00,32.0,28.6,00.0,39.9,32.3,31.7,0000.0,0009.93,0005.54,0005.04
2022-08-17 00:52:00,,0831.0,4.99,0.00,31.9,28.7,00.0,39.9,32.4,32.5,0000.0,0009.59,0005.52,0005.01
2022-08-17 00:53:00,,0831.0,4.99,0.00,31.9,28.8,00.0,40.0,32.4,33.4,0000.0,0009.16,0005.50,0004.99
2022-08-17 00:54:00,,0831.0,5.00,0.00,31.9,28.9,00.0,40.0,32.4,33.2,0000.0,0008.84,0005.48,0004.97
2022-08-17 00:55:00,,0831.0,5.00,0.00,31.8,29.0,00.0,40.0,32.4,32.6,0000.0,0008.74,0005.46,0004.96
2022-08-17 00:56:00,,0831.0,5.00,0.00,31.8,28.8,00.0,40.0,32.4,32.6,0000.0,0008.98,0005.44,0004.94
2022-08-17 00:57:00,,0831.0,5.01,0.00,31.7,28.1,00.0,39.9,32.1,32.6,0000.0,0009.10,0005.46,0004.95
2022-08-17 00:58:00,,0831.0,4.99,0.00,31.6,27.6,00.0,39.9,31.9,33.4,0000.0,0009.12,0005.46,0004.94
2022-08-17 00:59:00,,0831.0,5.00,0.00,31.5,27.4,00.0,39.8,31.9,33.4,0000.0,0008.98,0005.48,0004.93
